Simultaneous Nadir Overpasses (SNOs) Predictions

Prediction of SNOs between NOAA-20 and TERRA Satellite Orbit:

Table of predicted SNOs for the next 14.0 days since TLE Epoch: 7/6/2024
Index Date (NOAA-20) Time (NOAA-20) Lat,Lon (NOAA-20) SZA (NOAA-20 ) Date (TERRA) Time (TERRA) Lat,Lon (TERRA) SZA (TERRA ) Distance(km) Time Diff (sec)
1 07/07/2024 18:16:41 -72.36, 78.33 129.96 07/07/2024 18:17:27 -72.34, 78.30 129.99 2.49 46
2 07/07/2024 19:07:26 72.28,-114.21 49.97 07/07/2024 19:06:48 72.27,-114.17 49.95 2.19 38
3 07/10/2024 05:29:18 -72.93, -90.94 129.03 07/10/2024 05:30:27 -72.82, -89.15 129.25 59.57 69
4 07/10/2024 06:19:53 72.34, 77.56 50.34 07/10/2024 06:19:56 72.32, 77.60 50.31 2.73 3
5 07/10/2024 07:10:33 -72.17,-114.78 129.85 07/10/2024 07:09:21 -72.18,-115.00 129.82 7.46 72
6 07/12/2024 17:32:21 72.41, -90.69 50.75 07/12/2024 17:33:04 72.40, -90.59 50.73 3.53 43
7 07/12/2024 18:23:02 -72.28, 76.88 129.39 07/12/2024 18:22:28 -72.31, 76.90 129.35 3.02 34
8 07/15/2024 04:44:57 72.89, 100.21 51.66 07/15/2024 04:46:06 72.77, 101.76 51.44 52.63 69
9 07/15/2024 05:35:30 -72.35, -91.37 128.93 07/15/2024 05:35:36 -72.35, -91.34 128.93 1.06 6
10 07/15/2024 06:26:12 72.13, 76.37 50.84 07/15/2024 06:24:59 72.17, 76.01 50.92 13.19 73
11 07/17/2024 16:47:58 -72.43, 100.36 128.43 07/17/2024 16:48:43 -72.42, 100.46 128.45 3.36 45
12 07/17/2024 17:38:42 72.31, -92.10 51.46 07/17/2024 17:38:05 72.30, -92.09 51.45 1.60 37
13 07/20/2024 04:00:34 -72.92, -68.75 127.44 07/20/2024 04:01:43 -72.83, -67.10 127.63 54.80 69



Historial Predications of SNOs between NOAA-20 and TERRA
